Regional Weather Roundup
Issued by NWS

Home | Current Version | Previous Version | Text Only | Print | Product List | Glossary On
Versions: 1 2 3 4 5 6 7 8 9 10 11 12 13 14 15 16 17 18 19 20 21 22 23 24 25 26 27 28 29 30 31 32 33 34 35 36 37 38 39 40 41 42 43 44 45 46 47 48 49 50
000
ASUS43 KDTX 290001
RWRMI
MICHIGAN HOURLY REGIONAL WEATHER ROUNDUP
NATIONAL WEATHER SERVICE DETROIT/PONTIAC MI
800 PM EDT MON JUL 28 2014

NOTE: "FAIR" INDICATES FEW OR NO CLOUDS BELOW 12,000 FEET WITH NO
SIGNIFICANT WEATHER AND/OR OBSTRUCTION TO VISIBILITY.

MIZ047>049-052>055-059>063-066>070-074>076-081>083-290100-
SOUTHEAST LOWER MICHIGAN

CITY           SKY/WX    TMP DP  RH WIND       PRES   REMARKS
ADRIAN         CLOUDY    66  51  58 N8        29.98R
6HR MIN TEMP:  66; 6HR MAX TEMP:  72;

ALMA           PTSUNNY   60  47  61 CALM      30.02S
6HR MIN TEMP:  60; 6HR MAX TEMP:  67;

ANN ARBOR      PTCLDY    64  50  60 N10G20    29.97R
BAD AXE        MOCLDY    59  47  63 N7        29.99R
6HR MIN TEMP:  58; 6HR MAX TEMP:  61;

CARO           CLOUDY    61  50  67 NW6       29.99S
DETROIT CITY   CLOUDY    65  48  54 N9        29.97R
6HR MIN TEMP:  64; 6HR MAX TEMP:  72;

DETROIT        MOCLDY    64  51  62 N14       29.97R
6HR MIN TEMP:  64; 6HR MAX TEMP:  70;

FLINT          MOCLDY    61  45  55 N13       30.00R
6HR MIN TEMP:  61; 6HR MAX TEMP:  67;

GROSSE ILE     PTCLDY    64  52  63 N7        29.95S
HILLSDALE      MOCLDY    65  55  69 NW7       29.99R
HOWELL         MOCLDY    59  48  67 N5        30.00R
6HR MIN TEMP:  59; 6HR MAX TEMP:  66;


CITY           SKY/WX    TMP DP  RH WIND       PRES   REMARKS
JACKSON        PTCLDY    63  51  65 N6        29.99R
6HR MIN TEMP:  63; 6HR MAX TEMP:  70;

LAMBERTVILLE   CLOUDY    66  50  55 N8        29.97R
LANSING        CLOUDY    62  47  57 N12       30.01R
6HR MIN TEMP:  62; 6HR MAX TEMP:  68;

LAPEER         CLOUDY    58  48  69 N6        30.00S
MASON          MOCLDY    62  48  60 N7        30.00R
MONROE         CLOUDY    64  54  68 N7        29.95R
MT. CLEMENS    PTCLDY    60  47  62 N13       29.96R
6HR MIN TEMP:  60; 6HR MAX TEMP:  66;

PONTIAC        PTCLDY    59  48  67 N14       29.98R
6HR MIN TEMP:  59; 6HR MAX TEMP:  65;

PORT HOPE        N/A     61  49  64 VRB3      29.96S
6HR MIN TEMP:  60; 6HR MAX TEMP:  63;

PORT HURON     PTCLDY    57  46  67 NW6       29.98R
TRI CITIES     MOCLDY    62  46  55 N6        30.01F
6HR MIN TEMP:  62; 6HR MAX TEMP:  69;

TROY           MOCLDY    61  49  65 N10       29.99R
SAGINAW HB     CLOUDY    61  45  55 N5        30.00F
$$
MIZ043>046-050>051-056>058-064>065-071>073-077>080-290100-
SOUTHWEST LOWER MICHIGAN

CITY           SKY/WX    TMP DP  RH WIND       PRES   REMARKS
BATTLE CREEK   CLOUDY    64  50  60 N15       30.01R
6HR MIN TEMP:  64; 6HR MAX TEMP:  70;

BENTON HARBOR  SUNNY     57  49  74 VRB3      30.05F
6HR MIN TEMP:  57; 6HR MAX TEMP:  60;

BIG RAPIDS     SUNNY     61  46  58 N6        30.02S
6HR MIN TEMP:  61; 6HR MAX TEMP:  65;

COLDWATER      CLOUDY    65  54  69 NW10      29.99S
6HR MIN TEMP:  64; 6HR MAX TEMP:  71;

FREMONT        FAIR      63  47  54 NW7       30.03R
6HR MIN TEMP:  63; 6HR MAX TEMP:  67;

HOLLAND        SUNNY     60  47  61 NW8       30.04F
6HR MIN TEMP:  60; 6HR MAX TEMP:  65;

GRAND RAPIDS   MOSUNNY   66  48  52 N7        30.02S
6HR MIN TEMP:  65; 6HR MAX TEMP:  71;

IONIA          FAIR      60  47  60 N6        30.01S
KALAMAZOO      SUNNY     63  50  62 NW14      30.02S
6HR MIN TEMP:  63; 6HR MAX TEMP:  69;

LUDINGTON      SUNNY     60  48  64 CALM      30.05S
MARSHALL       CLOUDY    63  51  66 NW5       29.99R
MOUNT PLEASANT PTSUNNY   62  47  59 N5        30.01S
6HR MIN TEMP:  61; 6HR MAX TEMP:  66;

MUSKEGON       MOSUNNY   62  48  60 NW9       30.04S
6HR MIN TEMP:  61; 6HR MAX TEMP:  69;

SOUTH HAVEN    SUNNY     56  49  79 N8        30.05S
$$
MIZ016>042-290100-
NORTHERN LOWER MICHIGAN

CITY           SKY/WX    TMP DP  RH WIND       PRES   REMARKS
ALPENA         CLEAR     63  47  55 NW7       29.97S
6HR MIN TEMP:  58; 6HR MAX TEMP:  65;

BEAVER ISLAND  PTSUNNY   62  56  83 SW7       30.00F
6HR MIN TEMP:  61; 6HR MAX TEMP:  68;

BELLAIRE       SUNNY     63  49  61 CALM      30.00F
6HR MIN TEMP:  61; 6HR MAX TEMP:  65;

CADILLAC       SUNNY     59  49  68 CALM      30.02F
CHARLEVOIX     PTSUNNY   62  51  68 W12       30.03S
6HR MIN TEMP:  61; 6HR MAX TEMP:  66;

FRANKFORT      SUNNY     60  45  57 CALM      30.04S
GAYLORD        MOSUNNY   61  47  59 VRB3      30.00S
6HR MIN TEMP:  57; 6HR MAX TEMP:  62;

GRAYLING       SUNNY     62  47  58 NW6       30.01S
6HR MIN TEMP:  58; 6HR MAX TEMP:  64;

HARBOR SPRINGS PTSUNNY   61  52  72 W5        30.00S
HOUGHTON LAKE  SUNNY     61  48  62 NW8       30.01S
6HR MIN TEMP:  58; 6HR MAX TEMP:  64;

MANISTEE       SUNNY     59  46  63 NW5       30.05S
OSCODA         PTCLDY    63  47  57 NW5       29.97S
PELLSTON       PTSUNNY   64  51  62 NW6       29.99S
6HR MIN TEMP:  63; 6HR MAX TEMP:  69;

ROGERS CITY    SUNNY     61  50  66 NW7       29.99S
TRAVERSE CITY  MOSUNNY   65  46  50 N5        30.00F
6HR MIN TEMP:  61; 6HR MAX TEMP:  66;

$$
MIZ007>008-015-290100-
EASTERN UPPER MICHIGAN

CITY           SKY/WX    TMP DP  RH WIND       PRES   REMARKS
KINROSS        PTSUNNY   59  48  67 NW8       29.98F
6HR MIN TEMP:  59; 6HR MAX TEMP:  64;

MACKINAC ISLAN MOSUNNY   63  51  64 NW5       29.98S
6HR MIN TEMP:  63; 6HR MAX TEMP:  66;

NEWBERRY       PTSUNNY   62  49  63 NW7       29.99S
S. S. MARIE    MOSUNNY   56  43  61 NW12      29.98S
6HR MIN TEMP:  56; 6HR MAX TEMP:  65;

MUNISING         N/A     65  47  52 CALM      30.00F
6HR MIN TEMP:  64; 6HR MAX TEMP:  67;

$$
MIZ004>006-011>014-085-290100-
CENTRAL UPPER MICHIGAN

CITY           SKY/WX    TMP DP  RH WIND       PRES   REMARKS
MANISTIQUE     CLOUDY    67  51  56 NW6       30.00S
ESCANABA       CLOUDY    64  52  63 SW5       30.01S
6HR MIN TEMP:  64; 6HR MAX TEMP:  72;

MENOMINEE      PTSUNNY   66  55  68 CALM      30.02S
6HR MIN TEMP:  66; 6HR MAX TEMP:  68;

SAWYER-GWINN   CLOUDY    66  52  59 NW8       30.02F
$$
MIZ001>003-009>011-084-290100-
WESTERN UPPER MICHIGAN

CITY           SKY/WX    TMP DP  RH WIND       PRES   REMARKS
IRON MOUNTAIN  CLOUDY    68  51  54 NW5       30.03F
6HR MIN TEMP:  68; 6HR MAX TEMP:  73;

COPPER HARBOR    N/A     64  54  69 N10       29.99F
6HR MIN TEMP:  63; 6HR MAX TEMP:  69;

$$

ABBREVIATIONS USED IN REMARKS
   TC - TEMPERATURE IN CELSIUS
  WCI - WIND CHILL INDEX
   HX - HEAT INDEX
  VSB - VISIBILITY



USA.gov is the U.S. government's official web portal to all federal, state and local government web resources and services.